This demonstration page uses our WeatherBlox Daily Observations layout. Learn more.

Left ArrowRight Arrow

34.02893, -84.19858

Hourly Observations for July 28, 2018

Temp ( °F °C ) Dew Point ( °F °C ) Humidity (%) Winds ( mph kmh ) Pressure ( in mb ) Visibility ( mi km ) Precip ( " mm )
12:53 am 00:53 Clear 77 25 67 19.4 71 71 NNW 5 7 30.01 1016 10 16 0.00 0.00
1:53 am 01:53 Clear 76 24.4 67 19.4 74 74 NNW 6 9 30.00 1016 10 16 0.00 0.00
2:53 am 02:53 Clear 75 23.9 67 19.4 76 76 NNW 3 6 29.99 1016 10 16 0.00 0.00
3:53 am 03:53 Clear 71 21.7 68 20 90 90 Calm 29.98 1015 10 16 0.00 0.00
4:53 am 04:53 Clear 71 21.7 68 20 90 90 WNW 5 7 29.99 1016 10 16 0.00 0.00
5:53 am 05:53 Clear 70 21.1 67 19.4 90 90 Calm 29.99 1016 9 14 0.00 0.00
6:53 am 06:53 Mostly Cloudy 72 22.2 67 19.4 84 84 NW 8 13 30.01 1016 10 16 0.00 0.00
7:53 am 07:53 Mostly Sunny 73 22.8 65 18.3 76 76 NNW 7 11 30.03 1017 10 16 0.00 0.00
8:53 am 08:53 Sunny 76 24.4 65 18.3 69 69 N 6 9 30.05 1018 10 16 0.00 0.00
9:53 am 09:53 Sunny 79 26.1 66 18.9 65 65 NW 6 9 30.05 1018 10 16 0.00 0.00
10:53 am 10:53 Sunny 83 28.3 64 17.8 53 53 NW 5 7 30.04 1017 10 16 0.00 0.00
11:53 am 11:53 Sunny 85 29.4 59 15 42 42 NNW 7 11 30.04 1017 10 16 0.00 0.00
12:53 pm 12:53 Sunny 86 30 56 13.3 36 36 NW 5 7 30.03 1017 10 16 0.00 0.00
1:53 pm 13:53 Sunny 87 30.6 57 13.9 36 36 NW 10 17 30.02 1017 10 16 0.00 0.00
2:53 pm 14:53 Sunny 89 31.7 58 14.4 35 35 NNW 12 19 30.01 1016 10 16 0.00 0.00
3:53 pm 15:53 Sunny 89 31.7 56 13.3 33 33 NW 9 15 30.01 1016 10 16 0.00 0.00
4:53 pm 16:53 Sunny 88 31.1 59 15 38 38 NW 12 19 29.99 1016 10 16 0.00 0.00
5:53 pm 17:53 Sunny 87 30.6 56 13.3 35 35 NW 10 17 29.98 1015 10 16 0.00 0.00
6:53 pm 18:53 Sunny 84 28.9 56 13.3 38 38 NW 12 19 29.98 1015 10 16 0.00 0.00
7:53 pm 19:53 Sunny 80 26.7 59 15 49 49 NNW 10 17 30.00 1016 10 16 0.00 0.00
8:53 pm 20:53 Clear 78 25.6 60 15.6 54 54 NNW 8 13 30.01 1016 10 16 0.00 0.00
9:53 pm 21:53 Clear 76 24.4 60 15.6 58 58 N 6 9 30.01 1016 10 16 0.00 0.00
10:53 pm 22:53 Clear 74 23.3 61 16.1 64 64 NNW 6 9 30.02 1017 10 16 0.00 0.00
11:53 pm 23:53 Clear 70 21.1 61 16.1 73 73 N 3 6 30.02 1017 10 16 0.00 0.00

Powered by AerisWeather